BREEZE-M DEB, 38573

Orbit data source: Space-Track

BREEZE-M DEB, 38573 is space debris in HEO originally from a launch on Fri, 14 Mar 2008 UTC launched from the Tyuratam Missile And Space Complex (TTMTR). Debris objects in space refer to the collection of defunct objects orbiting the Earth. Examples of debris include non-operational satellites, rocket bodies, and fragments generated from explosions, collisions, or faulty payload assembly.

Loading next visibility...
Identifier
38573, 2008-011U
Orbit
HEO
Country
Flag of CISCIS
Related business
Manufacturer
Unknown
Mission
Spacecraft
Bus & Motor
Unknown
Mass
Unknown
Launch date (UTC)
2008-03-14 (18 years ago)
Launch vehicle
Unknown
Launch site
Tyuratam Missile And Space Complex (TTMTR)
Object type
Payload
Rocket body
Debris
Shape & HBR
Unknown shape, 0.4 m
Radar Cross Section
Medium (>0.1 m² and <1 m²)

Expand to show TLE details & history
Last TLE update: 2 weeks ago

TLE from 2 weeks ago
0 BREEZE-M DEB
1 38573U 08011U   26160.02280451  .00000113  00000-0  00000-0 0  9998
2 38573  48.5340 178.7808 6300315  81.3665   1.7093  3.02073590  9343
Epoch: 2026-06-09T00:32Z
TLE epoch observation values (Epoch: 2026-06-09T00:32:50.309Z)
Latitude
48.66956°
Longitude
4.65658°
Altitude
1,138.411 km
Speed
9.3 km/s
True Right ascension
18h 01m 04s
True Declination
48° 30' 27"
Sunlit
Object was in daylight at epoch
Visualization orbit readout
Latitude
Unknown
Longitude
Unknown
Altitude
Unknown
Speed
Unknown
Apparent Right ascension
Unknown
Apparent Declination
Unknown
Sunlit
N/A
Visualization observer readout
Local Sidereal Time
08:10:08
Azimuth
Unknown
Elevation
Unknown
Doppler factor
Unknown
Orbital elements
Apogee altitude
26,573.123 km
Perigee altitude
1,100.816 km
Semi-major axis
20,215.106 km
Eccentricity
0.63003
Inclination
48.534°
RAAN
178.7808°
Arg. of periapsis
81.3665°
True anomaly
9.66218°
Mean anomaly
1.7093°
Eccentric anomaly
4.61165°
Mean motion
0.75514 °/min
Orbital period
476.73 mins
BSTAR
0
Loading maneuver chart data...
Computing Atmospheric mass density...
Loading historical data...
Loading historical data...
Loading historical data...
Loading historical data...
Loading historical data...
Loading historical data...
Loading historical data...

Documentation

Showing up to 5 results
|